NOAA 16 DEB, 42400

Orbit data source: Space-Track

NOAA 16 DEB, 42400 is space debris in SSO originally from a launch on Thu, 21 Sep 2000 UTC launched from the Air Force Western Test Range (AFWTR). Debris objects in space refer to the collection of defunct objects orbiting the Earth. Examples of debris include non-operational satellites, rocket bodies, and fragments generated from explosions, collisions, or faulty payload assembly.

Loading next visibility...
Identifier
42400, 2000-055SU
Orbit
SSO
Country
Flag of USUS
Related business
Manufacturer
Unknown
Mission
Spacecraft
Bus & Motor
Unknown
Mass
Unknown
Launch date (UTC)
2000-09-21 (26 years ago)
Launch vehicle
Unknown
Launch site
Air Force Western Test Range (AFWTR)
Object type
Payload
Rocket body
Debris
Shape & HBR
Unknown shape, 0.1 m
Radar Cross Section
Medium (>0.1 m² and <1 m²)

Expand to show TLE details & history
Last TLE update: 2 days ago

TLE from 2 days ago
0 NOAA 16 DEB
1 42400U 00055SU  26248.34590278  .00001433  00000-0  61906-3 0  9996
2 42400  98.6416 294.5486 0022725 163.1812 197.0126 14.25841052538042
Epoch: 2026-09-05T08:18Z
TLE epoch observation values (Epoch: 2026-09-05T08:18:06.000Z)
Latitude
-0.00003°
Longitude
-174.43309°
Altitude
824.208 km
Speed
7.433 km/s
True Right ascension
19h 38m 11s
True Declination
0° 00' 00"
Sunlit
Object was in full shadow at epoch
Visualization orbit readout
Latitude
Unknown
Longitude
Unknown
Altitude
Unknown
Speed
Unknown
Apparent Right ascension
Unknown
Apparent Declination
Unknown
Sunlit
N/A
Visualization observer readout
Local Sidereal Time
12:44:25
Azimuth
Unknown
Elevation
Unknown
Doppler factor
Unknown
Orbital elements
Apogee altitude
819.133 km
Perigee altitude
786.495 km
Semi-major axis
7,180.951 km
Eccentricity
0.00227
Inclination
98.6416°
RAAN
294.5486°
Arg. of periapsis
163.1812°
True anomaly
196.93662°
Mean anomaly
197.0126°
Eccentric anomaly
196.97459°
Mean motion
3.56673 °/min
Orbital period
100.93 mins
BSTAR
0.00061906
Loading maneuver chart data...
Computing Atmospheric mass density...
Loading historical data...
Loading historical data...
Loading historical data...
Loading historical data...
Loading historical data...
Loading historical data...
Loading historical data...

Documentation

Showing up to 5 results
|